CUBESAT XI-V

Last updated on Mon Sep 07 2026 00:03:13 GMT+0000 (Coordinated Universal Time)

1 28895U 05043F 26249.38930948 .00000717 00000+0 12041-3 0 9996 2 28895 98.3090 46.7762 0013000 311.4280 48.5809 14.72809631113705
UTC large
Height (km)
Speed (km/s)
/
Latitude / Longitude
Inclination (degrees)
Orbital Period (minutes)
Azimuth
Elevation
Range (km)
Doppler Factor

Next 0 passes for location: London (51.5072 / 0.1276)

No passes found over London.
CUBESAT XI-V